Flag for U.S.A. Weather past 2 weeks in Costa Mesa, California, U.S.A.

63 °F


Feels Like: 63 °F
Forecast: 44 / 64 °F
Wind: 5 mph from Southwest

Location: John Wayne Airport-Orange County Airport

Current Time: Nov 28, 2015 at 2:08:06 PM

Latest Report: Nov 28, 2015 at 12:53 PM

Visibility: 10 mi

Pressure: 30.02 "Hg

Humidity: 31%

Dew point: 32 °F

Location of Costa MesaLocation

Historic Weather in Costa Mesa — Graph


Costa Mesa temperature yesterday

Maximum temperature yesterday: 62 °F (at 1:53 PM)
Minimum temperature yesterday: 49 °F (at 2:53 AM)
Average temperature yesterday: 54 °F

Past Weeks' High & Low Weather Summary

High87 °F (Nov 21, 1:53 PM)90% (Nov 25, 1:53 AM)30.18 "Hg (Nov 25, 1:53 AM)
Low43 °F (Nov 17, 4:53 AM)11% (Nov 17, 11:53 AM)29.85 "Hg (Nov 25, 2:53 AM)
Average60 °F51%29.96 "Hg
* Reported Nov 13 12:53 PM — Nov 28 12:53 PM, Costa Mesa, Weather by CustomWeather, © 2015

Note: Actual official high and low records may vary slightly from our data, if they occured in-between our weather recording intervals... More about our weather records


Costa Mesa weather history for previous 24 hours

Time TempWeatherWind HumidityBarometerVisibility
12:53 PM
Sat, Nov 28
63 °FSunny.5 mph31%30.02 "Hg10 mi
11:53 AM63 °FScattered clouds.5 mph33%30.05 "Hg10 mi
10:53 AM61 °FScattered clouds.5 mph34%30.08 "Hg10 mi
9:53 AM59 °FScattered clouds.No wind29%30.09 "Hg10 mi
8:53 AM56 °FPassing clouds.No wind33%30.09 "Hg10 mi
7:53 AM50 °FScattered clouds.No wind66%30.08 "Hg10 mi
6:53 AM48 °FScattered clouds.No wind71%30.07 "Hg10 mi
5:53 AM49 °FPassing clouds.No wind69%30.06 "Hg10 mi
4:53 AM49 °FOvercast.No wind69%30.04 "Hg10 mi
3:53 AM48 °FOvercast.No wind71%30.05 "Hg10 mi
2:53 AM47 °FOvercast.3 mph74%30.05 "Hg10 mi
1:53 AM47 °FPassing clouds.5 mph71%30.05 "Hg10 mi
12:53 AM49 °FClear.No wind69%30.05 "Hg10 mi
11:53 PM
Fri, Nov 27
50 °FClear.No wind66%30.04 "Hg10 mi
10:53 PM51 °FPassing clouds.3 mph66%30.05 "Hg10 mi
9:53 PM52 °FClear.6 mph64%30.05 "Hg10 mi
8:53 PM51 °FClear.No wind69%30.04 "Hg10 mi
7:53 PM53 °FClear.No wind61%30.04 "Hg10 mi
6:53 PM55 °FPassing clouds.5 mph57%30.03 "Hg10 mi
5:53 PM56 °FPassing clouds.No wind60%30.02 "Hg10 mi
4:53 PM57 °FPassing clouds.3 mph55%30.00 "Hg10 mi
3:53 PM59 °FScattered clouds.5 mph51%29.98 "Hg10 mi
2:53 PM59 °FScattered clouds.9 mph54%29.98 "Hg10 mi
Weather by CustomWeather, © 2015

See weather overviewHow to use our weather pages